Location: Unspecified
(0.0000°N, 0.0000°E)
Time: 06:44:16
(UTC+00:00)

Vanguard 2 - Pass Details

Date: 15 December 2018
Orbit: 553 x 2939 km, 32.9° (Epoch: 16 June)

Event Time Altitude Azimuth Distance (km) Brightness Sun altitude
Rises 06:09:33 0° 278° (W) 6,365 11.6 3.3°
Reaches altitude 10° 06:14:10 10° 270° (W) 5,555 11.3 4.4°
Maximum altitude 06:29:19 35° 211° (SSW) 4,019 11.2 7.9°
Drops below altitude 10° 06:43:43 10° 150° (SSE) 5,237 12.8 11.2°
Sets 06:48:00 0° 141° (SE) 5,970 13.3 12.1°
